DW9615 Home Hill AU current weather conditions

sailwx.info

Wind from 072 at 4 knots gusting 11

Air temperature 21.7° C
Dewpoint 17.0° C

Last reported at 2014-Sep-21 17:44 UTC.
Time now 2014-Sep-21 18:12 UTC

Location: S 19°40' E 147°25'.
View on Google Maps.

See reports from other nearby stations

  
Tides and Currents Weather Stations Pressure Air Temp Water Temp Dewpoint Dewpoint Depression Visibility Wind Speed Wind Dir Waves Ship Positions
date/time (UTC)wind fromknots sea level pressurealtimeterstation pressurevisibilityair tempwater tempwave heightnotes
2014-Sep-21 17:44 072 4 gusting 11 21.7
2014-Sep-21 17:29 109 5 gusting 10 21.7
2014-Sep-21 17:14 095 3 gusting 6 22.2
2014-Sep-21 16:59 109 2 gusting 6 22.2
2014-Sep-21 16:44 107 3 gusting 8 22.2
2014-Sep-21 16:29 178 2 gusting 6 22.2
2014-Sep-21 16:13 060 4 gusting 10 22.2
2014-Sep-21 15:58 159 5 gusting 12 22.2
2014-Sep-21 15:43 108 3 gusting 7 22.2
2014-Sep-21 15:28 103 4 gusting 9 22.2
2014-Sep-21 15:13 074 4 gusting 9 22.2
2014-Sep-21 14:58 078 4 gusting 10 21.7
2014-Sep-21 14:43 116 2 gusting 7 21.7
2014-Sep-21 14:28 097 2 gusting 5 21.7
2014-Sep-21 14:13 088 1 gusting 5 22.2
2014-Sep-21 13:58 114 1 gusting 9 22.2
2014-Sep-21 13:43 148 4 gusting 10 22.2
2014-Sep-21 13:28 090 5 gusting 12 22.2
2014-Sep-21 13:13 209 7 gusting 12 22.2
2014-Sep-21 12:58 090 3 gusting 12 22.2
2014-Sep-21 12:43 100 4 gusting 13 22.2
2014-Sep-21 12:28 118 7 gusting 13 22.2
2014-Sep-21 12:13 114 4 gusting 12 22.2
2014-Sep-21 11:58 121 6 gusting 13 22.2
2014-Sep-21 11:43 120 6 gusting 11 22.2
2014-Sep-21 11:28 123 6 gusting 14 22.8
2014-Sep-21 11:13 129 6 gusting 12 22.2
2014-Sep-21 10:58 091 5 gusting 10 22.2
2014-Sep-21 10:43 083 4 gusting 10 22.2
2014-Sep-21 10:28 145 4 gusting 8 22.2
2014-Sep-21 10:13 107 4 gusting 9 22.2
2014-Sep-21 09:58 108 5 gusting 12 22.2
2014-Sep-21 09:43 097 3 gusting 10 22.2
2014-Sep-21 09:28 118 6 gusting 9 22.2
2014-Sep-21 09:13 126 6 gusting 13 22.2
2014-Sep-21 08:58 107 4 gusting 12 22.2
2014-Sep-21 08:43 104 4 gusting 10 22.8
2014-Sep-21 08:28 115 4 gusting 12 22.8
2014-Sep-21 08:13 075 6 gusting 13 22.8
2014-Sep-21 07:58 060 6 gusting 12 22.8
2014-Sep-21 07:43 087 5 gusting 11 22.8
2014-Sep-21 07:28 103 5 gusting 13 23.3
2014-Sep-21 07:13 052 6 gusting 13 23.3
2014-Sep-21 06:58 076 7 gusting 13 23.9
2014-Sep-21 06:43 082 6 gusting 17 23.9
2014-Sep-21 06:28 095 7 gusting 13 24.4
2014-Sep-21 06:13 073 8 gusting 14 24.4
2014-Sep-21 05:58 090 8 gusting 13 25.0
2014-Sep-21 05:43 090 5 gusting 14 25.0
2014-Sep-21 05:28 057 8 gusting 13 25.0
2014-Sep-21 05:14 101 5 gusting 13 25.6
2014-Sep-21 04:58 094 8 gusting 14 25.6
2014-Sep-21 04:43 131 5 gusting 13 26.1
2014-Sep-21 04:28 082 6 gusting 14 25.6
2014-Sep-21 04:13 105 6 gusting 11 25.6
2014-Sep-21 03:58 095 6 gusting 13 25.6
2014-Sep-21 03:43 180 4 gusting 11 25.6
2014-Sep-21 03:28 086 6 gusting 13 25.6
2014-Sep-21 03:13 099 7 gusting 14 25.6
2014-Sep-21 02:58 096 7 gusting 13 26.1
2014-Sep-21 02:43 164 6 gusting 13 25.6
2014-Sep-21 02:28 050 6 gusting 13 25.6
2014-Sep-21 02:13 109 6 gusting 13 25.6
2014-Sep-21 01:58 036 5 gusting 13 25.6
2014-Sep-21 01:43 073 7 gusting 14 26.1
2014-Sep-21 01:28 156 6 gusting 14 25.6
2014-Sep-21 01:12 052 6 gusting 13 25.6
2014-Sep-21 00:57 123 7 gusting 15 25.6
2014-Sep-21 00:42 077 7 gusting 16 25.0
2014-Sep-21 00:27 101 8 gusting 15 25.6
2014-Sep-21 00:12 107 8 gusting 15 24.4
2014-Sep-20 23:57 086 6 gusting 13 24.4
2014-Sep-20 23:42 108 6 gusting 13 25.0
2014-Sep-20 23:27 107 6 gusting 13 24.4
2014-Sep-20 23:12 105 6 gusting 11 23.9
2014-Sep-20 22:57 112 5 gusting 12 23.9
2014-Sep-20 22:42 083 6 gusting 13 23.3
2014-Sep-20 22:27 109 6 gusting 12 23.3
2014-Sep-20 22:12 158 1 gusting 5 22.8
2014-Sep-20 21:57 107 0 gusting 4 22.2
2014-Sep-20 21:42 105 0 gusting 4 21.7
2014-Sep-20 21:27 105 0 gusting 3 20.6
2014-Sep-20 21:12 156 18.9
2014-Sep-20 20:57 169 18.3
2014-Sep-20 20:42 150 17.8
2014-Sep-20 20:27 156 17.8
2014-Sep-20 20:12 156 17.8
2014-Sep-20 19:57 156 17.8
2014-Sep-20 19:42 155 17.8
2014-Sep-20 19:27 159 17.8
2014-Sep-20 19:12 158 17.8
2014-Sep-20 18:57 160 18.3
2014-Sep-20 18:42 138 18.3
2014-Sep-20 18:27 150 18.3
2014-Sep-20 18:12 150 18.3
2014-Sep-20 17:57 150 18.9
2014-Sep-20 17:42 150 18.9
2014-Sep-20 17:27 150 19.4
2014-Sep-20 17:12 108 19.4
2014-Sep-20 16:57 100 20.0
2014-Sep-20 16:41 098 20.0
2014-Sep-20 16:26 097 20.0
2014-Sep-20 16:11 101 20.0
2014-Sep-20 15:56 101 20.6
2014-Sep-20 15:41 096 20.6
2014-Sep-20 15:26 107 0 gusting 2 20.6
2014-Sep-20 15:11 098 21.1
2014-Sep-20 14:56 114 21.1
2014-Sep-20 14:41 079 0 gusting 2 21.1
2014-Sep-20 14:26 104 0 gusting 3 21.7
2014-Sep-20 14:11 072 0 gusting 4 21.7
2014-Sep-20 13:56 087 1 gusting 3 21.7
2014-Sep-20 13:41 069 1 gusting 5 21.7
2014-Sep-20 13:26 083 0 gusting 5 21.7
2014-Sep-20 13:11 059 1 gusting 5 21.7
2014-Sep-20 12:56 102 0 gusting 4 21.7
2014-Sep-20 12:41 107 0 gusting 3 21.7
2014-Sep-20 12:26 076 1 gusting 7 21.7
2014-Sep-20 12:11 083 0 gusting 5 21.7
2014-Sep-20 11:56 073 1 gusting 4 21.7
2014-Sep-20 11:41 101 0 gusting 5 21.7
2014-Sep-20 11:26 073 1 gusting 5 22.2
2014-Sep-20 11:11 059 1 gusting 6 22.2
2014-Sep-20 10:56 083 2 gusting 6 22.2
2014-Sep-20 10:41 067 0 gusting 4 22.2
2014-Sep-20 10:26 136 1 gusting 4 22.2
2014-Sep-20 10:11 109 0 gusting 4 22.2
2014-Sep-20 09:56 076 1 gusting 5 22.2
2014-Sep-20 09:41 062 2 gusting 6 22.2
2014-Sep-20 09:26 077 2 gusting 5 22.2
2014-Sep-20 09:11 083 2 gusting 4 22.2
2014-Sep-20 08:56 080 2 gusting 5 22.2
2014-Sep-20 08:41 062 2 gusting 4 22.8
2014-Sep-20 08:26 066 0 gusting 4 22.8
2014-Sep-20 08:11 077 2 gusting 6 23.3
2014-Sep-20 07:41 047 23.9
2014-Sep-20 07:26 048 3 gusting 7 23.9
2014-Sep-20 07:11 047 1 gusting 10 24.4
2014-Sep-20 06:56 099 3 gusting 7 25.0
2014-Sep-20 06:41 010 0 gusting 8 25.6
2014-Sep-20 06:26 055 1 gusting 6 25.6
2014-Sep-20 06:11 073 0 gusting 7 26.1
2014-Sep-20 05:56 050 3 gusting 7 26.7
2014-Sep-20 05:41 022 0 gusting 9 26.7
2014-Sep-20 05:26 061 1 gusting 9 27.2
2014-Sep-20 05:11 015 1 gusting 7 27.8
2014-Sep-20 04:56 351 1 gusting 8 27.8
2014-Sep-20 04:41 078 1 gusting 9 27.8
2014-Sep-20 04:26 074 3 gusting 11 27.8
2014-Sep-20 04:11 330 2 gusting 8 28.3
2014-Sep-20 03:56 333 0 gusting 9 27.8
2014-Sep-20 03:40 026 3 gusting 13 27.8
2014-Sep-20 03:25 031 2 gusting 12 28.3
2014-Sep-20 03:10 072 1 gusting 7 28.9
2014-Sep-20 02:55 008 0 gusting 6 28.3
2014-Sep-20 02:40 045 4 gusting 6 27.8
2014-Sep-20 02:25 083 4 gusting 9 27.8
2014-Sep-20 02:10 050 2 gusting 6 28.3
2014-Sep-20 01:55 095 4 gusting 8 27.8
2014-Sep-20 01:40 064 1 gusting 6 27.8
2014-Sep-20 01:25 336 1 gusting 6 28.3
2014-Sep-20 01:10 327 2 gusting 6 27.8
2014-Sep-20 00:55 101 27.8
2014-Sep-20 00:40 091 0 gusting 3 27.2
2014-Sep-20 00:25 196 26.1
2014-Sep-20 00:10 354 0 gusting 4 26.7
2014-Sep-19 23:55 263 25.6
2014-Sep-19 23:40 008 25.6
2014-Sep-19 23:25 054 25.0
2014-Sep-19 23:10 017 1 gusting 3 24.4
2014-Sep-19 22:40 182 23.9
2014-Sep-19 22:24 090 23.3
2014-Sep-19 22:09 145 22.2
2014-Sep-19 21:54 103 21.1
2014-Sep-19 21:39 190 19.4
2014-Sep-19 21:24 192 18.3
2014-Sep-19 21:09 179 17.2
2014-Sep-19 20:39 075 16.1
2014-Sep-19 20:24 076 15.6
2014-Sep-19 20:09 076 15.6
2014-Sep-19 19:54 075 15.6
2014-Sep-19 19:39 076 15.6
2014-Sep-19 19:24 076 15.6
2014-Sep-19 19:09 073 15.6
2014-Sep-19 18:54 073 15.6
2014-Sep-19 18:39 073 15.6
2014-Sep-19 18:24 073 16.1
2014-Sep-19 18:09 070 16.1